Time,TemperatureF,DewpointF,PressureIn,WindDirection,WindDirectionDegrees,WindSpeedMPH,WindSpeedGustMPH,Humidity,HourlyPrecipIn,Conditions,Clouds,dailyrainin,SoftwareType,DateUTC
2013-01-02 00:02:00,14.0,7.0,-100.00,SE,145,1.0,4.0,73,0.00,,,-99.99,,2013-01-02 07:02:00,
2013-01-02 00:12:00,14.0,7.0,-100.00,SSE,150,0.0,2.0,73,0.00,,,-99.99,,2013-01-02 07:12:00,
2013-01-02 00:22:00,14.0,7.0,-100.00,ESE,105,0.0,0.0,73,0.00,,,-99.99,,2013-01-02 07:22:00,
2013-01-02 00:32:00,14.0,7.0,-100.00,NW,310,1.0,2.0,74,0.00,,,-99.99,,2013-01-02 07:32:00,
2013-01-02 00:42:00,14.0,7.0,-100.00,SSW,210,0.0,4.0,74,0.00,,,-99.99,,2013-01-02 07:42:00,
2013-01-02 00:52:00,14.0,7.0,-100.00,West,280,0.0,2.0,74,0.00,,,-99.99,,2013-01-02 07:52:00,
2013-01-02 01:02:00,14.0,7.0,-100.00,SSE,155,1.0,2.0,75,0.00,,,-99.99,,2013-01-02 08:02:00,
2013-01-02 01:11:00,14.0,7.0,-100.00,SE,140,1.0,2.0,75,0.00,,,-99.99,,2013-01-02 08:11:00,
2013-01-02 01:22:00,13.0,7.0,-100.00,SE,135,0.0,1.0,75,0.00,,,-99.99,,2013-01-02 08:22:00,
2013-01-02 01:32:00,13.0,7.0,-100.00,ESE,110,0.0,2.0,76,0.00,,,-99.99,,2013-01-02 08:32:00,
2013-01-02 01:42:00,14.0,8.0,-100.00,North,10,2.0,5.0,76,0.00,,,-99.99,,2013-01-02 08:42:00,
2013-01-02 01:52:00,14.0,8.0,-100.00,WSW,250,1.0,4.0,76,0.00,,,-99.99,,2013-01-02 08:52:00,
2013-01-02 02:02:00,14.0,8.0,-100.00,NW,305,0.0,2.0,76,0.00,,,-99.99,,2013-01-02 09:02:00,
2013-01-02 02:12:00,14.0,8.0,-100.00,West,260,0.0,1.0,76,0.00,,,-99.99,,2013-01-02 09:12:00,
2013-01-02 02:22:00,13.0,7.0,-100.00,WNW,295,0.0,1.0,76,0.00,,,-99.99,,2013-01-02 09:22:00,
2013-01-02 02:32:00,13.0,8.0,-100.00,WNW,295,0.0,0.0,76,0.00,,,-99.99,,2013-01-02 09:32:00,
2013-01-02 02:42:00,13.0,8.0,-100.00,South,180,0.0,0.0,76,0.00,,,-99.99,,2013-01-02 09:42:00,
2013-01-02 02:52:00,13.0,8.0,-100.00,South,180,0.0,0.0,76,0.00,,,-99.99,,2013-01-02 09:52:00,
2013-01-02 03:02:00,14.0,8.0,-100.00,South,175,0.0,1.0,77,0.00,,,-99.99,,2013-01-02 10:02:00,
2013-01-02 03:12:00,14.0,8.0,-100.00,South,175,0.0,1.0,77,0.00,,,-99.99,,2013-01-02 10:12:00,
2013-01-02 03:22:00,14.0,8.0,-100.00,South,175,0.0,1.0,78,0.00,,,-99.99,,2013-01-02 10:22:00,
2013-01-02 03:32:00,14.0,8.0,-100.00,South,175,0.0,1.0,78,0.00,,,-99.99,,2013-01-02 10:32:00,
2013-01-02 03:42:00,14.0,9.0,-100.00,NE,50,2.0,4.0,78,0.00,,,-99.99,,2013-01-02 10:42:00,
2013-01-02 03:52:00,14.0,9.0,-100.00,SE,140,1.0,2.0,79,0.00,,,-99.99,,2013-01-02 10:52:00,
2013-01-02 04:02:00,14.0,9.0,-100.00,SE,140,0.0,1.0,79,0.00,,,-99.99,,2013-01-02 11:02:00,
2013-01-02 04:11:00,14.0,8.0,-100.00,SE,140,0.0,1.0,79,0.00,,,-99.99,,2013-01-02 11:11:00,
2013-01-02 04:22:00,14.0,9.0,-100.00,SE,135,0.0,3.0,80,0.00,,,-99.99,,2013-01-02 11:22:00,
2013-01-02 04:32:00,14.0,9.0,-100.00,ENE,75,0.0,2.0,80,0.00,,,-99.99,,2013-01-02 11:32:00,
2013-01-02 04:42:00,14.0,9.0,-100.00,South,185,1.0,3.0,80,0.00,,,-99.99,,2013-01-02 11:42:00,
2013-01-02 04:52:00,14.0,9.0,-100.00,SSW,210,0.0,2.0,80,0.00,,,-99.99,,2013-01-02 11:52:00,
2013-01-02 05:02:00,14.0,9.0,-100.00,South,180,0.0,1.0,80,0.00,,,-99.99,,2013-01-02 12:02:00,
2013-01-02 05:12:00,14.0,9.0,-100.00,NW,320,1.0,4.0,80,0.00,,,-99.99,,2013-01-02 12:12:00,
2013-01-02 05:22:00,14.0,9.0,-100.00,NNW,340,1.0,2.0,80,0.00,,,-99.99,,2013-01-02 12:22:00,
2013-01-02 05:32:00,14.0,9.0,-100.00,NW,315,1.0,3.0,80,0.00,,,-99.99,,2013-01-02 12:32:00,
2013-01-02 05:42:00,14.0,9.0,-100.00,NNW,330,1.0,4.0,80,0.00,,,-99.99,,2013-01-02 12:42:00,
2013-01-02 05:52:00,13.0,8.0,-100.00,NW,320,1.0,4.0,80,0.00,,,-99.99,,2013-01-02 12:52:00,
2013-01-02 06:02:00,14.0,9.0,-100.00,North,350,1.0,4.0,80,0.00,,,-99.99,,2013-01-02 13:02:00,
2013-01-02 06:12:00,14.0,9.0,-100.00,South,190,1.0,4.0,80,0.00,,,-99.99,,2013-01-02 13:12:00,
2013-01-02 06:22:00,14.0,9.0,-100.00,SSE,165,0.0,2.0,80,0.00,,,-99.99,,2013-01-02 13:22:00,
2013-01-02 06:32:00,13.0,8.0,-100.00,ESE,110,0.0,1.0,80,0.00,,,-99.99,,2013-01-02 13:32:00,
2013-01-02 06:42:00,13.0,8.0,-100.00,SSE,160,1.0,4.0,80,0.00,,,-99.99,,2013-01-02 13:42:00,
2013-01-02 06:52:00,14.0,9.0,-100.00,North,0,2.0,6.0,80,0.00,,,-99.99,,2013-01-02 13:52:00,
2013-01-02 07:02:00,14.0,9.0,-100.00,NNW,340,1.0,6.0,80,0.00,,,-99.99,,2013-01-02 14:02:00,
2013-01-02 07:12:00,14.0,9.0,-100.00,NNW,330,2.0,4.0,80,0.00,,,-99.99,,2013-01-02 14:12:00,
2013-01-02 07:22:00,13.0,8.0,-100.00,NW,315,1.0,3.0,80,0.00,,,-99.99,,2013-01-02 14:22:00,
2013-01-02 07:32:00,13.0,8.0,-100.00,NW,310,0.0,4.0,80,0.00,,,-99.99,,2013-01-02 14:32:00,
2013-01-02 07:42:00,13.0,8.0,-100.00,NW,320,0.0,5.0,80,0.00,,,-99.99,,2013-01-02 14:42:00,
2013-01-02 07:53:00,13.0,8.0,-100.00,WSW,255,1.0,2.0,80,0.00,,,-99.99,,2013-01-02 14:53:00,
2013-01-02 08:02:00,13.0,8.0,-100.00,NW,320,2.0,5.0,80,0.00,,,-99.99,,2013-01-02 15:02:00,
2013-01-02 08:12:00,13.0,8.0,-100.00,SSW,195,1.0,3.0,80,0.00,,,-99.99,,2013-01-02 15:12:00,
2013-01-02 08:22:00,13.0,8.0,-100.00,WNW,300,1.0,5.0,80,0.00,,,-99.99,,2013-01-02 15:22:00,
2013-01-02 08:33:00,14.0,9.0,-100.00,SSW,195,1.0,2.0,80,0.00,,,-99.99,,2013-01-02 15:33:00,
2013-01-02 08:42:00,15.0,10.0,-100.00,ESE,120,0.0,4.0,80,0.00,,,-99.99,,2013-01-02 15:42:00,
2013-01-02 08:52:00,15.0,10.0,-100.00,ESE,120,1.0,1.0,80,0.00,,,-99.99,,2013-01-02 15:52:00,
2013-01-02 09:02:00,15.0,10.0,-100.00,South,180,0.0,1.0,80,0.00,,,-99.99,,2013-01-02 16:02:00,
2013-01-02 09:12:00,15.0,10.0,-100.00,SSW,210,1.0,2.0,80,0.00,,,-99.99,,2013-01-02 16:12:00,
2013-01-02 09:22:00,15.0,10.0,-100.00,SSW,195,1.0,1.0,80,0.00,,,-99.99,,2013-01-02 16:22:00,
2013-01-02 09:33:00,15.0,10.0,-100.00,SSW,195,0.0,2.0,80,0.00,,,-99.99,,2013-01-02 16:33:00,
2013-01-02 09:42:00,16.0,11.0,-100.00,South,185,1.0,2.0,80,0.00,,,-99.99,,2013-01-02 16:42:00,
2013-01-02 09:53:00,16.0,11.0,-100.00,South,185,0.0,2.0,79,0.00,,,-99.99,,2013-01-02 16:53:00,
2013-01-02 10:03:00,17.0,11.0,-100.00,South,190,0.0,1.0,79,0.00,,,-99.99,,2013-01-02 17:03:00,
2013-01-02 10:12:00,17.0,11.0,-100.00,SSE,160,1.0,3.0,78,0.00,,,-99.99,,2013-01-02 17:12:00,
2013-01-02 10:22:00,17.0,11.0,-100.00,SSE,150,1.0,3.0,77,0.00,,,-99.99,,2013-01-02 17:22:00,
2013-01-02 10:33:00,19.0,12.0,-100.00,SSW,200,1.0,1.0,76,0.00,,,-99.99,,2013-01-02 17:33:00,
2013-01-02 10:43:00,19.0,12.0,-100.00,SSE,165,1.0,2.0,74,0.00,,,-99.99,,2013-01-02 17:43:00,
2013-01-02 10:53:00,20.0,12.0,-100.00,SSE,165,2.0,2.0,70,0.00,,,-99.99,,2013-01-02 17:53:00,
2013-01-02 11:02:00,20.0,11.0,-100.00,South,180,2.0,5.0,66,0.00,,,-99.99,,2013-01-02 18:02:00,
2013-01-02 11:12:00,21.0,11.0,-100.00,SE,135,3.0,7.0,64,0.00,,,-99.99,,2013-01-02 18:12:00,
2013-01-02 11:22:00,21.0,11.0,-100.00,SSE,155,2.0,6.0,62,0.00,,,-99.99,,2013-01-02 18:22:00,
2013-01-02 11:33:00,22.0,10.0,-100.00,South,185,4.0,7.0,60,0.00,,,-99.99,,2013-01-02 18:33:00,
2013-01-02 11:42:00,22.0,10.0,-100.00,SSE,160,4.0,7.0,58,0.00,,,-99.99,,2013-01-02 18:42:00,
2013-01-02 11:53:00,24.0,10.0,-100.00,SSE,160,3.0,6.0,55,0.00,,,-99.99,,2013-01-02 18:53:00,
2013-01-02 12:02:00,24.0,10.0,-100.00,SSE,150,4.0,6.0,53,0.00,,,-99.99,,2013-01-02 19:02:00,
2013-01-02 12:12:00,25.0,10.0,-100.00,South,170,3.0,6.0,52,0.00,,,-99.99,,2013-01-02 19:12:00,
2013-01-02 12:22:00,26.0,10.0,-100.00,South,180,4.0,4.0,50,0.00,,,-99.99,,2013-01-02 19:22:00,
2013-01-02 12:32:00,27.0,11.0,-100.00,SSE,165,2.0,5.0,49,0.00,,,-99.99,,2013-01-02 19:32:00,
2013-01-02 12:42:00,27.0,11.0,-100.00,SSE,155,2.0,4.0,49,0.00,,,-99.99,,2013-01-02 19:42:00,
2013-01-02 12:52:00,28.0,11.0,-100.00,SSE,155,2.0,6.0,48,0.00,,,-99.99,,2013-01-02 19:52:00,
2013-01-02 13:02:00,28.0,12.0,-100.00,SE,130,6.0,7.0,49,0.00,,,-99.99,,2013-01-02 20:02:00,
2013-01-02 13:12:00,28.0,12.0,-100.00,SE,135,4.0,7.0,49,0.00,,,-99.99,,2013-01-02 20:12:00,
2013-01-02 13:22:00,29.0,13.0,-100.00,ESE,115,2.0,7.0,50,0.00,,,-99.99,,2013-01-02 20:22:00,
2013-01-02 13:32:00,30.0,13.0,-100.00,SSE,155,2.0,7.0,49,0.00,,,-99.99,,2013-01-02 20:32:00,
2013-01-02 13:42:00,29.0,12.0,-100.00,South,185,4.0,7.0,49,0.00,,,-99.99,,2013-01-02 20:42:00,
2013-01-02 13:53:00,29.0,12.0,-100.00,SSE,150,4.0,10.0,49,0.00,,,-99.99,,2013-01-02 20:53:00,
2013-01-02 14:02:00,29.0,12.0,-100.00,SSE,150,3.0,8.0,48,0.00,,,-99.99,,2013-01-02 21:02:00,
2013-01-02 14:12:00,29.0,12.0,-100.00,SSE,160,3.0,12.0,47,0.00,,,-99.99,,2013-01-02 21:12:00,
2013-01-02 14:22:00,30.0,12.0,-100.00,SE,140,4.0,12.0,46,0.00,,,-99.99,,2013-01-02 21:22:00,
2013-01-02 14:32:00,30.0,12.0,-100.00,South,185,2.0,7.0,45,0.00,,,-99.99,,2013-01-02 21:32:00,
2013-01-02 14:42:00,30.0,11.0,-100.00,South,175,4.0,12.0,45,0.00,,,-99.99,,2013-01-02 21:42:00,
2013-01-02 14:52:00,30.0,11.0,-100.00,SSW,200,4.0,9.0,45,0.00,,,-99.99,,2013-01-02 21:52:00,
2013-01-02 15:02:00,29.0,10.0,-100.00,South,185,4.0,11.0,45,0.00,,,-99.99,,2013-01-02 22:02:00,
2013-01-02 15:12:00,28.0,10.0,-100.00,SSE,165,3.0,10.0,46,0.00,,,-99.99,,2013-01-02 22:12:00,
2013-01-02 15:22:00,27.0,10.0,-100.00,SSE,160,4.0,10.0,47,0.00,,,-99.99,,2013-01-02 22:22:00,
2013-01-02 15:32:00,27.0,10.0,-100.00,South,190,4.0,9.0,48,0.00,,,-99.99,,2013-01-02 22:32:00,
2013-01-02 15:42:00,27.0,10.0,-100.00,South,180,4.0,11.0,48,0.00,,,-99.99,,2013-01-02 22:42:00,
2013-01-02 15:52:00,27.0,10.0,-100.00,South,180,4.0,7.0,48,0.00,,,-99.99,,2013-01-02 22:52:00,
2013-01-02 16:02:00,27.0,10.0,-100.00,South,180,2.0,6.0,48,0.00,,,-99.99,,2013-01-02 23:02:00,
2013-01-02 16:12:00,26.0,10.0,-100.00,SSW,195,2.0,7.0,48,0.00,,,-99.99,,2013-01-02 23:12:00,
2013-01-02 16:22:00,26.0,10.0,-100.00,SSW,195,2.0,6.0,48,0.00,,,-99.99,,2013-01-02 23:22:00,
2013-01-02 16:32:00,26.0,9.0,-100.00,NNW,330,2.0,7.0,48,0.00,,,-99.99,,2013-01-02 23:32:00,
2013-01-02 16:42:00,26.0,9.0,-100.00,NW,310,1.0,6.0,48,0.00,,,-99.99,,2013-01-02 23:42:00,
2013-01-02 16:52:00,25.0,9.0,-100.00,WNW,300,3.0,6.0,48,0.00,,,-99.99,,2013-01-02 23:52:00,
2013-01-02 17:02:00,25.0,8.0,-100.00,South,175,2.0,7.0,48,0.00,,,-99.99,,2013-01-03 00:02:00,
2013-01-02 17:12:00,25.0,8.0,-100.00,WNW,285,1.0,7.0,48,0.00,,,-99.99,,2013-01-03 00:12:00,
2013-01-02 17:22:00,25.0,8.0,-100.00,NW,315,3.0,6.0,49,0.00,,,-99.99,,2013-01-03 00:22:00,
2013-01-02 17:37:00,24.0,8.0,-100.00,NW,320,3.0,6.0,49,0.00,,,-99.99,,2013-01-03 00:37:00,
2013-01-02 17:42:00,24.0,8.0,-100.00,North,0,3.0,6.0,49,0.00,,,-99.99,,2013-01-03 00:42:00,
2013-01-02 17:52:00,24.0,8.0,-100.00,NE,50,2.0,5.0,50,0.00,,,-99.99,,2013-01-03 00:52:00,
2013-01-02 18:02:00,23.0,8.0,-100.00,SSW,210,1.0,3.0,51,0.00,,,-99.99,,2013-01-03 01:02:00,
2013-01-02 18:12:00,22.0,7.0,-100.00,NNW,330,1.0,4.0,52,0.00,,,-99.99,,2013-01-03 01:12:00,
2013-01-02 18:22:00,21.0,7.0,-100.00,North,0,2.0,4.0,53,0.00,,,-99.99,,2013-01-03 01:22:00,
2013-01-02 18:32:00,21.0,7.0,-100.00,West,280,2.0,4.0,53,0.00,,,-99.99,,2013-01-03 01:32:00,
2013-01-02 18:42:00,20.0,6.0,-100.00,SSW,210,1.0,4.0,53,0.00,,,-99.99,,2013-01-03 01:42:00,
2013-01-02 18:52:00,19.0,5.0,-100.00,NNE,25,1.0,2.0,53,0.00,,,-99.99,,2013-01-03 01:52:00,
2013-01-02 19:02:00,19.0,5.0,-100.00,NNE,20,1.0,4.0,54,0.00,,,-99.99,,2013-01-03 02:02:00,
2013-01-02 19:12:00,18.0,5.0,-100.00,SE,130,1.0,5.0,56,0.00,,,-99.99,,2013-01-03 02:12:00,
2013-01-02 19:22:00,18.0,6.0,-100.00,WSW,240,0.0,4.0,58,0.00,,,-99.99,,2013-01-03 02:22:00,
2013-01-02 19:32:00,17.0,5.0,-100.00,SE,145,1.0,4.0,58,0.00,,,-99.99,,2013-01-03 02:32:00,
2013-01-02 19:42:00,17.0,5.0,-100.00,SE,145,1.0,4.0,58,0.00,,,-99.99,,2013-01-03 02:42:00,
2013-01-02 19:52:00,17.0,5.0,-100.00,SE,145,1.0,4.0,58,0.00,,,-99.99,,2013-01-03 02:52:00,
2013-01-02 20:02:00,16.0,5.0,-100.00,NE,40,1.0,4.0,62,0.00,,,-99.99,,2013-01-03 03:02:00,
2013-01-02 20:12:00,15.0,5.0,-100.00,SSW,195,1.0,4.0,63,0.00,,,-99.99,,2013-01-03 03:12:00,
2013-01-02 20:22:00,14.0,4.0,-100.00,SE,125,0.0,2.0,64,0.00,,,-99.99,,2013-01-03 03:22:00,
2013-01-02 20:41:00,14.0,4.0,-100.00,SW,220,1.0,4.0,65,0.00,,,-99.99,,2013-01-03 03:41:00,
2013-01-02 20:52:00,12.0,4.0,-100.00,SSW,210,0.0,1.0,67,0.00,,,-99.99,,2013-01-03 03:52:00,
2013-01-02 21:02:00,12.0,3.0,-100.00,NW,305,0.0,4.0,68,0.00,,,-99.99,,2013-01-03 04:02:00,
2013-01-02 21:12:00,11.0,4.0,-100.00,SSW,210,0.0,4.0,69,0.00,,,-99.99,,2013-01-03 04:12:00,
2013-01-02 21:22:00,11.0,3.0,-100.00,NW,325,1.0,3.0,70,0.00,,,-99.99,,2013-01-03 04:22:00,
2013-01-02 21:32:00,11.0,4.0,-100.00,South,180,1.0,3.0,71,0.00,,,-99.99,,2013-01-03 04:32:00,
2013-01-02 21:42:00,10.0,3.0,-100.00,SE,130,0.0,0.0,72,0.00,,,-99.99,,2013-01-03 04:42:00,
2013-01-02 21:52:00,10.0,3.0,-100.00,NNW,330,0.0,1.0,72,0.00,,,-99.99,,2013-01-03 04:52:00,
2013-01-02 22:03:00,9.0,3.0,-100.00,North,350,0.0,3.0,73,0.00,,,-99.99,,2013-01-03 05:03:00,
2013-01-02 22:12:00,8.0,2.0,-100.00,South,190,0.0,3.0,74,0.00,,,-99.99,,2013-01-03 05:12:00,
2013-01-02 22:22:00,8.0,2.0,-100.00,WSW,250,0.0,0.0,75,0.00,,,-99.99,,2013-01-03 05:22:00,
2013-01-02 22:33:00,8.0,2.0,-100.00,SE,140,0.0,1.0,76,0.00,,,-99.99,,2013-01-03 05:33:00,
2013-01-02 22:42:00,7.0,2.0,-100.00,ESE,115,1.0,1.0,77,0.00,,,-99.99,,2013-01-03 05:42:00,
2013-01-02 22:52:00,7.0,2.0,-100.00,NW,305,0.0,3.0,78,0.00,,,-99.99,,2013-01-03 05:52:00,
2013-01-02 23:02:00,7.0,2.0,-100.00,SSW,205,0.0,4.0,78,0.00,,,-99.99,,2013-01-03 06:02:00,
2013-01-02 23:12:00,6.0,1.0,-100.00,SSW,205,0.0,1.0,79,0.00,,,-99.99,,2013-01-03 06:12:00,
2013-01-02 23:22:00,6.0,2.0,-100.00,North,350,0.0,1.0,80,0.00,,,-99.99,,2013-01-03 06:22:00,
2013-01-02 23:32:00,6.0,1.0,-100.00,NNE,15,0.0,0.0,80,0.00,,,-99.99,,2013-01-03 06:32:00,
2013-01-02 23:42:00,5.0,1.0,-100.00,SE,135,0.0,1.0,81,0.00,,,-99.99,,2013-01-03 06:42:00,
2013-01-02 23:52:00,5.0,0.0,-100.00,SE,130,0.0,2.0,81,0.00,,,-99.99,,2013-01-03 06:52:00,